Regional Weather Roundup
Issued by NWS Upton, NY

Current Version | Previous Version | Text Only | Print | Product List | Glossary Off
Versions: 1 2 3 4 5 6 7 8 9 10 11 12 13 14 15 16 17 18 19 20 21 22 23 24 25 26 27 28 29 30 31 32 33 34 35 36 37 38 39 40 41 42 43 44 45 46 47 48 49 50

000
ASUS41 KOKX 011805
RWROKX

REGIONAL WEATHER ROUNDUP
NATIONAL WEATHER SERVICE NEW YORK NY
200 PM EDT WED OCT 01 2014

NOTE: "FAIR" INDICATES FEW OR NO CLOUDS BELOW 12,000 FEET WITH NO
SIGNIFICANT WEATHER AND/OR OBSTRUCTIONS TO VISIBILITY.

NYZ071-072-176-178-NJZ106-104-011900-
NEW YORK CITY METRO AREA


CITY           SKY/WX    TMP DP  RH WIND       PRES   REMARKS
CENTRAL PARK   CLOUDY    63  58  83 VRB7      30.06F
LAGUARDIA APRT CLOUDY    64  59  82 N9        30.03F
KENNEDY INTL   CLOUDY    65  57  75 N14       30.04S
NEWARK/LIBERTY CLOUDY    65  58  78 N13       30.03F
BRNX BOT. GARD   N/A     61  59  94 N6        30.04S
TETERBORO      LGT RAIN  64  59  82 N7        30.03S
$$

NYZ177-179-078>081-011900-
LONG ISLAND NEW YORK

CITY           SKY/WX    TMP DP  RH WIND       PRES   REMARKS
FARMINGDALE    CLOUDY    64  58  80 NE9       30.03S
ISLIP          DRIZZLE   62  58  86 NE9       30.00F FOG
SHIRLEY        CLOUDY    63  58  83 NE8       30.02F
WESTHAMPTON    LGT RAIN  62  59  90 N14G21    30.03S FOG
MONTAUK POINT    N/A     61  59  93 N10       30.02S
$$

NYZ052-065-067-011900-
HUDSON VALLEY

CITY           SKY/WX    TMP DP  RH WIND       PRES   REMARKS
WHITE PLAINS   DRIZZLE   62  58  86 N7        30.03F FOG
NEWBURGH       CLOUDY    61  61 100 VRB6      30.07F FOG
MONTGOMERY       N/A     63  59  87 NE8       30.06F
POUGHKEEPSIE   CLOUDY    63  59  87 N6        30.05F
ALBANY         CLOUDY    62  57  83 N8        30.09F
$$

NJZ001-105-106-008-010-013-015-019>022-104-011900-
NEW JERSEY

CITY           SKY/WX    TMP DP  RH WIND       PRES   REMARKS
NEWARK/LIBERTY CLOUDY    65  58  78 N13       30.03F
TETERBORO      LGT RAIN  64  59  82 N7        30.03S
CALDWELL       CLOUDY    63  57  81 NE6       30.04F
MORRISTOWN     CLOUDY    66  59  77 NE6       30.04F
SOMERVILLE     CLOUDY    66  57  72 N5        30.02F
LINDEN         CLOUDY    69  61  76 NE6       30.05F
SUSSEX         CLOUDY    65  59  81 NE9       30.05F
ANDOVER          N/A     63  57  81 VRB6      30.06F
TRENTON        CLOUDY    66  56  70 VRB6      30.02F
MILLVILLE      PTSUNNY   71  58  63 N7        30.01S
ATLANTIC CITY  CLOUDY    67  60  78 N12       30.00F
WRIGHTSTOWN    CLOUDY    64  59  84 N10       30.00F
TOMS RIVER     CLOUDY    63  59  88 N7        30.02F
BELMAR         CLOUDY    63  55  77 N7        30.02F
$$

PAZ047>061-062-071-011900-
EASTERN PENNSYLVANIA

CITY           SKY/WX    TMP DP  RH WIND       PRES   REMARKS
PHILADELPHIA   PTSUNNY   72  57  59 NE7       30.01F
ALLENTOWN      PTSUNNY   72  55  55 E9        30.03F
SCRANTON       PTSUNNY   72  53  51 SE7       30.03F
$$

CTZ002-004>006-009-010-012-RIZ004-006-007-MAZ004-011-015-011900-
SOUTHERN NEW ENGLAND
 IN CT

CITY           SKY/WX    TMP DP  RH WIND       PRES   REMARKS
BRADLEY INTL   CLOUDY    62  57  83 N8        30.06S
HARTFORD       CLOUDY    61  58  90 N10       30.05F
DANBURY        CLOUDY    62  57  83 NE12      30.06F
WTRBRY/OXFORD  LGT RAIN  59  54  82 NE12G17   30.06F FOG
BRIDGEPORT     LGT RAIN  62  60  93 N10       30.03F
MERIDEN        LGT RAIN  61  58  90 N8        30.05S
NEW HAVEN      LGT RAIN  64  59  83 N13       30.03F
CHESTER        HVY RAIN  59  57  94 N6        30.04F
GROTON         LGT RAIN  60  59  96 N14G20    30.01F
WILLIMANTIC    LGT RAIN  61  57  87 N7        30.05F FOG

 IN RI

CITY           SKY/WX    TMP DP  RH WIND       PRES   REMARKS
PROVIDENCE     LGT RAIN  59  57  93 N14       30.04F FOG
BLOCK ISLAND   CLOUDY    61  55  82 N14G23    30.00S
WESTERLY       LGT RAIN  60  58  92 N9G18     30.02S

 IN MA

CITY           SKY/WX    TMP DP  RH WIND       PRES   REMARKS
BOSTON         RAIN      56  56 100 NE13      30.07F FOG
WORCESTER      LGT RAIN  54  54 100 NE9       30.08S
WESTFIELD      LGT RAIN  61  57  87 N8        30.07S
PROVINCETOWN   CLOUDY    61  57  88 NE15G22   30.04R
NANTUCKET      CLOUDY    63  60  90 NE18      29.96F
$$

ANZ330-335-338-340-345-350-353-355-011900-
COASTAL MARINE OBSERVATIONS


STATION/POSITION TIME  SKY/WX   TEMP    WIND        PRES    VSBY  WAVE
                                AIR SEA DIR/SP/G                  HT/PER
                 (UTC)          (F)     (DEG/KT/KT) (MB)    (MI)  (FT/S)
NY HARB ENTRANCE NOT AVBL
4S FIRE IS       1800               68                N/A           3/ 5
20S FIRE ISLAND  1800            63 67   20/ 16/ 17 1015.6          4/ 6
23SW MTP         1800                                 N/A           5/ 6
HUDSON CANYON    1800            65 70   10/ 17/ 21 1013.9          5/ 6
EXECUTION ROCKS  1800            64 68  360/ 10/ 14   N/A
WESTERN LI SOUND 1800            64      20/ 12/ 14   N/A           2/ 4
CENTRAL LI SOUND 1700            61 68   40/ 16/ 17   N/A           2/ 3
EASTERN LI SOUND 1700            62 67   20/ 12/ 17   N/A
ROBBINS REEF     1800            63      10/ 12/ 14 1015.6
$$


>>>>>>>>>>>>>>>>>>>>>>>>>>>> KEY <<<<<<<<<<<<<<<<<<<<<<<<<<<
>                                                          <
>     SKY/WX - SKY CONDITION/PRESENT WEATHER               <
>     TMP    - TEMPERATURE IN FAHRENHEIT                   <
>     DP     - DEWPOINT IN FAHRENHEIT                      <
>     RH     - RELATIVE HUMIDITY IN PERCENT                <
>     WIND   - DIRECTION AND SPEED IN MPH                  <
>     PRES   - MEAN SEA LEVEL PRESSURE IN INCHES OF HG     <
>     WCI    - WIND CHILL INDEX                            <
>     VSB    - VISIBILITY IN MILES                         <
>     HX     - HEAT INDEX                                  <
>     TC     - TEMPERATURE IN CELSIUS                      <
>     VRB    - VARIABLE WIND DIRECTION                     <
>                                                          <
>>>>>>>>>>>>>>>>>>>>>>>>>>>> KEY <<<<<<<<<<<<<<<<<<<<<<<<<<<




USA.gov is the U.S. government's official web portal to all federal, state and local government web resources and services.